STARLINK-1657, 46354

Orbit data source: Space-Track

STARLINK-1657, 46354 is a payload satellite owned by SpaceX/Seattle (US) in LEO that was launched on Thu, 03 Sep 2020 UTC via an FALCON 9 launch vehicle from the Air Force Eastern Test Range (AFETR). Payloads include a variety of satellites, spacecraft, and rockets equipped with specific instruments for various scientific and technological missions. These include communications satellites like Starlink; space stations such as the ISS; scientific satellites like the Hubble; Earth observation satellites from companies like Planet Labs, Umbra, and HawkEye 360; GPS; miniature CubeSats for education and research; and military/defense satellites.

Loading next visibility...
STARLINK-1657 details
Identifier
46354, 2020-062AF
Orbit
LEO
Last TLE update22 hours ago
Origin
Flag of USSpaceX/Seattle (US)
ManufacturerSpaceX/Seattle
MissionOperational Commercial Communications
Bus & MotorSTARLINK, Unknown motor
Mass260 kg wet, ~248 kg dry
Launch date (UTC)
2020-09-03 (4 years ago)
Launch vehicle
FALCON 9
Launch site
Air Force Eastern Test Range (AFETR)
Object type
Payload
Rocket body
Debris
Shape & HBRBox + 1 Pan, 8.86 m
Radar Cross Section13.562 m², Large (>1 m²)

Expand to show TLE details & history

TLE from 22 hours ago
0 STARLINK-1657
1 46354U 20062AF  24360.51514823  .00005636  00000-0  39690-3 0  9996
2 46354  53.0533 188.1448 0001634  79.0150 281.1022 15.06402348238117
Epoch: 2024-12-25T12:21Z
Definitive object data (Epoch: 2024-12-25T12:21:48.807Z)
Latitude-0.00006°
Longitude-91.8164°
Altitude547.866 km
Speed7.589 km/s
True Right ascension12h 32m 34s
True Declination0° 00' 00"
Sunlit
Object was in daylight at TLE epoch
Visualization TLE readout
Latitude-38.22472°
Longitude-132.04073°
Altitude560.362 km
Speed7.581 km/s
Apparent Right ascension10h 31m 07s
Apparent Declination-86° 06' 21"
Sunlit
Object is in daylight
Visualization observer readout
Local Sidereal Time09:47:07
Azimuth179.081° S
Elevation-36.09°
Doppler factor1
Orbital elements
Apogee altitude548.607 km
Perigee altitude546.344 km
Semi-major axis6,925.612 km
Eccentricity0.0001634
Inclination53.0533°
RAAN188.1448°
Arg. of periapsis79.015°
True anomaly281.08383°
Mean anomaly281.1022°
Eccentric anomaly281.09301°
Mean motion3.76579 °/min
BSTAR0.0003969
Orbital period95.6 mins
Loading maneuver chart data...
Loading historical data...
Loading historical data...
Loading historical data...
Loading historical data...
Loading historical data...
Loading historical data...
Loading historical data...

STARLINK-1657 Visibility forecast

Observer location: undefined°, undefined

Span
Click to sort rows by Start time (UTC) header in descending order
Start Az.
Max El. time (UTC)
Max El. Az.
Max El.
End time (UTC)
End Az.
4 mins2024-12-26 13:59:56.871Z153.974° SSE2024-12-26 14:01:56.871Z120.172° SE15.474°2024-12-26 14:03:56.871Z89.884° E
6 mins2024-12-26 15:37:56.871Z241.638° WSW2024-12-26 15:40:56.871Z349.941° N42.45°2024-12-26 15:43:56.871Z44.402° NE
4 mins2024-12-26 17:18:56.871Z308.403° NW2024-12-26 17:20:56.871Z343.898° N17.632°2024-12-26 17:22:56.871Z17.852° NNE
4 mins2024-12-26 20:40:56.871Z353.101° N2024-12-26 20:41:56.871Z13.938° NNE21.9°2024-12-26 20:44:56.871Z72.059° E
6 mins2024-12-26 22:19:56.871Z300.828° NW2024-12-26 22:21:56.871Z253.508° W42.493°2024-12-26 22:25:56.871Z140.172° SSE
|